Location: Fours
(44.3167°N, 6.7000°E)
Time: 23:59:12
(UTC+00:00)

H-2A R/B - Pass Details

Date: 16 October 2021
Orbit: 527 x 651 km, 98.3° (Epoch: 26 November)

Event Time Altitude Azimuth Distance (km) Brightness Sun altitude
Rises 17:15:29 0° 136° (SE) 2,935 5.7 -5.8°
Reaches altitude 10° 17:17:57 10° 124° (SE) 2,017 4.7 -6.3°
Maximum altitude 17:21:38 27° 67° (ENE) 1,215 3.5 -6.9°
Drops below altitude 10° 17:25:14 10° 10° (N) 1,975 5.0 -7.5°
Sets 17:27:37 0° 358° (N) 2,862 5.9 -8.0°
